Location: Ferchesar
(52.6477°N, 12.4298°E)
Time: 05:51:07
(UTC+02:00)

Transit 4A - Pass Details

Date: 26 February 2021
Orbit: 869 x 976 km, 66.8° (Epoch: 12 April)

Event Time Altitude Azimuth Distance (km) Brightness Sun altitude
Rises 22:08:47 0° 309° (NW) 3,572 11.9 -38.0°
Reaches altitude 10° 22:13:17 10° 279° (W) 2,594 10.7 -38.5°
Maximum altitude 22:15:10 12° 260° (W) 2,468 10.4 -38.7°
Enters shadow 22:15:52 11° 253° (WSW) 2,479 10.3 -38.8°
Drops below altitude 10° 22:17:02 10° 242° (WSW) 2,566 - -38.9°
Sets 22:21:25 0° 211° (SSW) 3,476 - -39.3°
